Вернуться в каталог

COSMOS 1275 DEB

АктивенPO
NORAD 17618·DEBRIS·🇷🇺 Russia

Запущен Jun 4, 1981 с Plesetsk Cosmodrome

Loading…

Ближайшие Пролёты (ближайшие 24 часа)

TLE

СвежийSource: Space-Track

Эпоха: Sep 14, 2026, 11:19 UTC

1 17618U 81053KM  26257.47160286  .00001358  00000-0  70795-3 0  9994
2 17618  82.8435  68.2138 0046990 278.8986 109.7309 14.13378810106618

Отслеживайте COSMOS 1275 DEB в реальном времени с AllMySat

Download on the App Store